sat.trackr.live / text

‹ back to catalog

MOHAMMED VI-A

NORAD 43005 · 2017-070A

PAYLOAD ACTIVE UNKNOWN

§ Identity

Operator
Country
MA
Launch date
2017-11-08
Launch site
FRGUI
Launch vehicle
Mass (kg)
RCS (m²)

External: N2YO · Heavens-Above · Gunter

§ Orbital elements

Epoch: 2026-09-15T23:38:18.296736Z

Period
97.49 min
Inclination
97.9483°
Eccentricity
0.0001475
Mean motion
14.77072015 rev/d
Perigee alt
637.5 km
Apogee alt
639.6 km
Semi-major
7,016.7 km
B*
9.5679e-5
RAAN
330.0286°
Arg perigee
77.2882°
Mean anomaly
282.8493°
Rev number
47,738

§ Raw data

MOHAMMED VI-A1 43005U 17070A   26258.98493399  .00000625  00000+0  95679-4 0  99962 43005  97.9483 330.0286 0001475  77.2882 282.8493 14.77072015477386

JSON: /api/v1/satellites/43005 · /tle

For live sub-satellite position, see the globe view (requires WebGL).

§ Visibility from observer

Set your observer location to see the next 7 days of passes ≥ 10°. The values pass through the URL so the page stays shareable.

No JS? Fill the form by hand. The geolocation button needs JavaScript.

§ Radio — SatNOGS DB

ModeDescriptionDownlinkUplink
BPSK Telemetry 2.242 GHz

1 transmitter · refreshed weekly from db.satnogs.org